Location: *
(46.4000°N, 12.6667°E)
Time: 08:35:29
(UTC+00:00)

Daily predictions for brighter satellites

Satellite Brightness Start Highest point End
(mag) Time Altitude Azimuth Time Altitude Azimuth Time Altitude Azimuth
ATLAS 2AS CENTAUR R/B 2.9 18:09:19 10° NW 18:17:00 76° NE 18:24:00 10° SE
SeaSat 1 2.5 18:14:27 10° NNE 18:19:26 82° ESE 18:24:22 10° SSW
STARLINK-1234 3.4 18:17:17 10° NW 18:20:20 49° NNE 18:23:23 10° E
STARLINK-1209 3.3 18:17:45 10° NW 18:20:48 51° NNE 18:23:52 10° ESE
ATLAS 5 CENTAUR R/B 2.0 18:17:15 10° S 18:21:05 39° ESE 18:25:19 10° NE
STARLINK-1233 3.7 18:18:10 10° NW 18:21:11 41° NNE 18:24:11 10° E
STARLINK-1212 3.7 18:18:38 10° NW 18:21:38 41° NNE 18:24:39 10° E
STARLINK-1105 3.7 18:19:04 10° NW 18:22:05 41° NNE 18:25:06 10° E
STARLINK-1206 3.7 18:19:32 10° NW 18:22:32 41° NNE 18:25:32 10° E
STARLINK-1247 3.7 18:20:00 10° NW 18:23:00 42° NNE 18:26:00 10° E
STARLINK-1227 3.7 18:20:24 10° NW 18:23:25 42° NNE 18:26:27 10° E
Cosmos 1603 4.3 18:18:01 10° SW 18:23:36 64° WNW 18:29:12 10° NNE
H-2A R/B 2.1 18:18:35 10° SSE 18:23:42 65° ENE 18:28:42 10° N
STARLINK-1218 3.6 18:20:54 10° NW 18:23:54 42° NNE 18:26:54 10° E
STARLINK-1226 3.6 18:21:21 10° NW 18:24:21 42° NNE 18:27:21 10° E
COSMOS 2455 3.4 18:18:52 10° NNW 18:24:40 45° NE 18:30:25 10° ESE
STARLINK-1254 3.6 18:21:46 10° NW 18:24:48 43° NNE 18:27:49 10° E
STARLINK-1215 3.6 18:22:15 10° NW 18:25:16 43° NNE 18:28:16 10° E
STARLINK-1231 3.6 18:22:43 10° NW 18:25:43 43° NNE 18:28:43 10° E
HJ-1C 4.0 18:23:09 10° S 18:26:28 61° W 18:29:50 10° NNW
STARLINK-1232 3.6 18:23:37 10° NW 18:26:38 44° NNE 18:29:38 10° E
STARLINK-1217 3.6 18:24:03 10° NW 18:27:05 44° NNE 18:30:05 10° E
STARLINK-1208 3.6 18:24:28 10° NW 18:27:31 44° NNE 18:30:33 10° E
Abrixas rocket 2.0 18:24:41 10° WNW 18:27:38 73° NNE 18:30:33 10° E
STARLINK-1229 3.6 18:24:57 10° NW 18:27:58 44° NNE 18:30:58 10° E
STARLINK-1271 3.6 18:25:24 10° NW 18:28:26 45° NNE 18:31:25 10° E
STARLINK-1270 3.5 18:25:52 10° NW 18:28:53 45° NNE 18:31:51 10° E
STARLINK-1154 3.5 18:26:18 10° NW 18:29:20 45° NNE 18:32:17 11° E
STARLINK-1197 3.5 18:27:13 10° NW 18:30:14 46° NNE 18:33:09 11° E
STARLINK-1189 3.5 18:27:39 10° NW 18:30:41 46° NNE 18:33:34 11° E
Cosmos 1140 Rocket 3.9 18:25:59 10° S 18:30:47 39° ESE 18:35:34 10° NE
STARLINK-1198 3.5 18:28:06 10° NW 18:31:09 46° NNE 18:34:01 11° E
STARLINK-1188 3.5 18:28:32 10° NW 18:31:34 47° NNE 18:34:26 11° E
STARLINK-1235 3.2 18:29:11 10° NW 18:32:18 56° NNE 18:35:09 12° ESE
STARLINK-1187 3.3 18:29:36 10° NW 18:32:42 52° NNE 18:35:33 12° ESE
Ariane Rocket 3.0 18:27:53 10° SSE 18:32:58 88° ENE 18:38:03 10° NNW
STARLINK-1199 3.4 18:30:29 10° NW 18:33:33 48° NNE 18:36:21 12° E
Cosmos 1943 Rocket 4.3 18:29:05 10° NW 18:33:42 27° WSW 18:38:20 10° SSW
STARLINK-1191 3.4 18:30:56 10° NW 18:34:00 48° NNE 18:36:47 12° E
STARLINK-1210 3.4 18:31:24 10° NW 18:34:27 49° NNE 18:37:13 12° E
STARLINK-1221 3.4 18:31:50 10° NW 18:34:56 49° NNE 18:37:40 12° E
STARLINK-1219 3.4 18:32:17 10° NW 18:35:23 49° NNE 18:38:06 12° E
STARLINK-1222 3.4 18:32:44 10° NW 18:35:49 50° NNE 18:38:31 13° E
STARLINK-1211 3.4 18:33:12 10° NW 18:36:17 50° NNE 18:38:58 13° E
STARLINK-1214 3.4 18:33:39 10° NW 18:36:43 50° NNE 18:39:24 13° E
STARLINK-1245 3.4 18:34:07 10° NW 18:37:11 50° NNE 18:39:48 13° E
STARLINK-1238 3.4 18:34:32 10° NW 18:37:37 51° NNE 18:40:15 13° E
Meteor 1-16 Rocket 4.2 18:32:44 10° S 18:38:10 90° ESE 18:43:49 10° N
ERBS 4.0 18:35:42 10° NNW 18:38:31 24° NNE 18:41:20 10° E
STARLINK-1205 3.3 18:35:28 10° NW 18:38:32 51° NNE 18:41:07 14° E
CZ-2C R/B 2.8 18:33:44 10° SSE 18:38:34 79° ENE 18:43:20 10° N
Cosmos 614 Rocket 3.9 18:33:24 10° SSW 18:38:36 75° ESE 18:43:48 10° NNE
STARLINK-1204 3.3 18:35:56 10° NW 18:39:00 52° NNE 18:41:33 14° E
APEX 4.3 18:32:37 10° NNW 18:39:09 86° ENE 18:44:22 10° SSE
MONITOR-E 3.6 18:39:22 10° SSE 18:42:00 78° ENE 18:44:38 10° N
STARLINK-29 2.9 18:40:11 10° SW 18:43:20 63° SE 18:46:32 10° ENE
Cosmos 1190 Rocket 4.0 18:39:26 10° S 18:44:39 60° ESE 18:49:51 10° NNE
SJ-6B 2.9 18:41:00 10° SSE 18:45:05 70° ENE 18:49:13 10° N
Resurs 1-3 4.3 18:41:32 10° SE 18:45:34 37° ENE 18:49:37 10° N
Aureole 1 Rocket 4.0 18:38:21 10° SSW 18:45:46 77° ESE 18:51:32 10° NNE
STARLINK-1240 4.5 18:42:53 10° NW 18:46:51 42° NNE 18:50:22 13° E
Cosmos 1300 3.8 18:43:42 10° SE 18:46:52 25° E 18:50:03 10° NNE
BREEZE-M DEB (TANK) 3.5 18:41:48 10° WNW 18:48:35 89° N 18:50:46 17° ESE
Cosmos 2369 Rocket 4.3 18:46:18 10° NW 18:50:58 27° WSW 18:55:37 10° SSW
STARLINK-60 3.5 18:47:44 10° WSW 18:50:59 59° NNW 18:54:14 10° NE
STARLINK-1216 4.4 18:47:51 10° NW 18:51:51 44° NNE 18:55:08 14° E
SL-24 R/B 4.0 18:48:21 10° NNE 18:52:10 44° E 18:55:42 10° S
CZ-2C R/B 3.9 18:50:28 10° NNE 18:55:03 51° E 18:59:31 10° S
STARLINK-1237 4.3 18:52:49 10° NW 18:56:50 46° NNE 18:59:54 16° E
Cosmos 2058 Rocket 3.1 18:54:44 10° S 18:59:13 69° E 19:03:42 10° NNE
STARLINK-1202 4.2 18:57:49 10° NW 19:01:51 48° NNE 19:04:42 18° E
Cosmos 1726 Rocket 3.8 18:57:29 10° SSW 19:01:53 73° W 19:06:21 10° N
SL-08 RB Rocket 3.7 18:57:32 10° SSE 19:02:05 88° ENE 19:06:45 10° NNW
Cosmos 1461 3.4 18:59:27 10° NW 19:03:58 68° WSW 19:08:01 13° SSE
STARLINK-1228 2.8 19:01:10 10° WNW 19:04:06 70° SSW 19:05:31 27° SE
DMSP B5D2-2 4.2 19:01:07 10° NNE 19:06:13 51° E 19:11:19 10° S
Cosmos 921 Rocket 2.8 19:02:02 10° NNW 19:06:14 81° ENE 19:09:43 15° SSE
Cosmos 1703 4.3 19:02:36 10° NNW 19:06:26 48° W 19:10:15 10° SSW
Cosmos 1726 4.4 19:03:27 10° SW 19:06:43 28° WNW 19:10:00 10° NNW
Cosmos 2341 Rocket 4.1 19:00:56 10° N 19:07:16 60° ENE 19:13:23 11° SSE
SL-4 R/B 2.6 19:04:21 10° W 19:07:37 43° NNW 19:10:57 10° ENE
Cosmos 407 Rocket 3.7 19:05:08 10° SSW 19:10:16 72° WNW 19:15:24 10° NNE
Cosmos 1908 4.1 19:06:35 10° SSW 19:10:21 53° WNW 19:14:12 10° N
CZ-4C R/B 4.2 19:04:53 10° NNW 19:10:25 26° NNE 19:16:38 10° E
Cosmos 1340 Rocket 2.8 19:06:45 10° SSW 19:10:48 84° W 19:14:51 10° N
FREGAT/IRIS 4.4 19:08:37 10° SSW 19:11:01 28° W 19:13:28 10° NW
STARLINK-1246 4.1 19:07:45 10° NW 19:11:50 52° NNE 19:14:15 22° E
RESURS DK-1 4.2 19:10:01 10° N 19:12:50 17° NE 19:14:21 15° ENE
Cosmos 2228 4.1 19:08:42 10° SSW 19:12:52 47° WNW 19:17:05 10° N
STARLINK-1201 2.9 19:09:55 10° WNW 19:13:12 87° NNE 19:14:33 32° ESE
Cosmos 676 Rocket 4.0 19:08:37 10° S 19:13:50 65° ESE 19:19:03 10° NNE
COSMOS 2406 4.3 19:13:01 21° ESE 19:14:06 22° E 19:18:23 10° NE
STARLINK-1224 4.0 19:12:46 10° WNW 19:16:52 55° NNE 19:19:04 25° E
Cosmos 2218 Rocket 4.4 19:12:27 10° N 19:18:25 46° ENE 19:22:17 21° SE
MetOp-A 4.1 19:13:38 10° SSE 19:18:59 90° WSW 19:24:23 10° NNW
STARLINK-1203 3.9 19:14:54 10° WNW 19:19:04 60° NNE 19:21:13 27° E
Cosmos 2058 3.7 19:16:22 10° N 19:20:06 32° ENE 19:21:10 28° ESE
Cosmos 220 Rocket 4.4 19:16:06 10° NNW 19:20:18 47° ENE 19:22:11 28° ESE
Resurs 01 Rocket 1.7 19:17:44 22° SE 19:20:24 59° ENE 19:24:46 10° N
STARLINK-1225 3.9 19:17:45 10° WNW 19:21:52 58° NNE 19:23:51 28° E
MOS 1 Rocket 3.6 19:17:25 10° NNE 19:22:50 67° E 19:28:14 10° S
STARLINK-52 3.1 19:20:32 10° WSW 19:23:44 70° NNW 19:25:57 18° NE
CZ-2C R/B 2.5 19:19:00 10° NNE 19:24:09 62° ESE 19:29:19 10° S
BREEZE M DEB (TANK) 3.0 19:23:06 10° SW 19:26:11 51° SE 19:34:29 10° ENE
Cosmos 1812 Rocket 4.0 19:25:20 29° SE 19:26:44 38° E 19:30:45 10° NNE
STARLINK-1230 3.8 19:22:43 10° WNW 19:26:50 62° NNE 19:28:37 31° E
SPOT 3 Rocket 3.8 19:22:54 10° S 19:28:06 71° WSW 19:33:19 10° NNW
Cosmos 962 Rocket 4.4 19:21:58 10° N 19:28:09 89° WSW 19:34:09 11° S
ARGOS 4.3 19:24:36 10° S 19:29:42 42° W 19:34:49 10° NNW
Cosmos 1697 Rocket 4.0 19:25:43 10° N 19:30:24 25° NE 19:32:44 20° E
SL-8 Rocket 4.0 19:24:29 10° N 19:30:48 66° E 19:35:13 21° SSE
STARLINK-1243 3.8 19:27:40 10° WNW 19:31:49 65° NNE 19:33:24 35° E
FALCON 9 DEB 3.5 19:28:37 10° WSW 19:32:06 64° NNW 19:34:33 18° NE
Iridium 2 3.8 19:33:27 39° SE 19:34:30 54° E 19:38:15 10° NNE
Cosmos 2181 Rocket 3.9 19:29:09 10° S 19:35:19 66° E 19:41:26 10° NNE
Cosmos 1954 Rocket 4.0 19:30:12 10° SSW 19:35:27 87° WNW 19:40:42 10° NNE
STARLINK-1236 3.7 19:32:39 10° WNW 19:36:48 69° NNE 19:38:11 40° E
Cosmos 1741 Rocket 4.3 19:41:05 28° SSE 19:43:27 45° ESE 19:48:30 10° NNE
Meteor 2-1 Rocket 4.5 19:41:06 24° SSE 19:44:28 53° E 19:50:14 10° NNE
Cosmos 2366 rocket 3.9 19:38:48 10° N 19:44:56 67° E 19:48:11 29° SSE
Cosmos 1076 Rocket 3.5 19:41:00 10° N 19:45:17 62° E 19:46:20 46° SE
STARLINK-1269 3.6 19:42:36 10° WNW 19:46:46 78° NNE 19:47:44 51° ESE
BREEZE-M DEB (TANK) 4.4 19:42:44 10° SW 19:45:56 27° S 19:45:56 27° S
Landsat 7 4.3 19:46:17 37° E 19:47:18 42° ENE 19:51:47 10° N
Cosmos 1959 Rocket 4.4 19:42:52 10° N 19:49:12 74° E 19:52:36 29° SSE
Cosmos 1656 4.0 19:43:57 10° NNW 19:49:31 52° ENE 19:51:23 37° ESE
Cosmos 1763 Rocket 3.6 19:44:55 10° NNW 19:50:02 56° ENE 19:51:29 41° ESE
SPOT 1/Viking Rocket 4.1 19:50:06 36° ESE 19:51:23 43° ENE 19:56:20 10° N
STARLINK-1200 3.5 19:47:35 10° WNW 19:51:45 83° NNE 19:52:31 58° ESE
Cosmos 540 Rocket 4.4 19:48:57 10° N 19:53:35 32° ENE 19:54:31 30° E
Cosmos 1455 3.8 19:56:32 23° NE 19:56:32 23° NE 19:58:23 10° NNE
STARLINK-1192 3.5 19:52:33 10° WNW 19:56:44 89° NE 19:57:18 65° ESE
STARLINK-1233 4.1 19:54:04 10° WNW 19:56:38 34° SW 19:56:38 34° SW
STARLINK-1212 4.2 19:54:33 10° WNW 19:57:04 33° SW 19:57:04 33° SW
STARLINK-1105 4.2 19:54:58 10° WNW 19:57:31 33° SW 19:57:31 33° SW
STARLINK-1206 4.2 19:55:27 10° WNW 19:57:55 32° WSW 19:57:55 32° WSW
Iridium 4 Rocket 2.8 19:54:31 10° N 19:58:41 67° E 19:59:06 62° ESE
STARLINK-1247 4.2 19:55:55 10° WNW 19:58:22 32° WSW 19:58:22 32° WSW
STARLINK-1227 4.2 19:56:19 10° WNW 19:58:47 32° WSW 19:58:47 32° WSW
USA 234 3.4 19:53:11 10° ENE 19:59:27 46° SE 20:05:41 10° SSW
STARLINK-1218 4.3 19:56:49 10° WNW 19:59:13 31° WSW 19:59:13 31° WSW
STARLINK-1226 4.3 19:57:15 10° WNW 19:59:40 31° WSW 19:59:40 31° WSW
STARLINK-1254 4.3 19:57:41 10° WNW 20:00:06 31° WSW 20:00:06 31° WSW
Cosmos 1980 Rocket 3.6 19:56:01 10° N 20:00:34 24° NE 20:02:02 22° ENE
STARLINK-1215 4.4 19:58:11 10° WNW 20:00:32 30° WSW 20:00:32 30° WSW
Cosmos 1174 4.1 19:57:12 10° NW 20:01:26 86° WSW 20:02:39 52° SSE
STARLINK-1231 4.4 19:58:39 10° WNW 20:00:58 29° WSW 20:00:58 29° WSW
STARLINK-1244 3.4 19:57:38 10° WNW 20:01:48 86° SSW 20:02:10 73° SE
Cosmos 1892 2.6 19:58:16 10° N 20:02:11 74° E 20:02:13 74° E
STARLINK-1232 4.4 19:59:34 10° WNW 20:01:50 29° WSW 20:01:50 29° WSW
STARLINK-1217 4.5 20:00:01 10° WNW 20:02:16 28° WSW 20:02:16 28° WSW
Abrixas rocket 3.9 20:00:27 10° W 20:02:07 23° WSW 20:02:07 23° WSW
STARLINK-1208 4.5 20:00:26 10° WNW 20:02:43 29° WSW 20:02:43 29° WSW
ATLAS 5 CENTAUR R/B 3.4 20:01:54 10° WSW 20:05:46 32° NW 20:10:07 10° NNE
STARLINK-1138 3.4 20:02:32 10° WNW 20:06:42 80° SSW 20:06:52 77° S
Cosmos 1825 3.6 20:03:17 10° N 20:05:39 27° NE 20:05:39 27° NE
ATLAS 2AS CENTAUR R/B 4.4 20:01:16 10° NW 20:07:13 27° WSW 20:12:48 10° SSW
Cosmos-2242 3.9 20:08:41 36° ENE 20:08:41 36° ENE 20:11:48 10° NNE
COSMOS 2455 3.9 20:05:01 10° NW 20:10:32 38° WSW 20:13:57 21° SSW
STARLINK-1143 3.5 20:07:30 10° WNW 20:11:39 75° SW 20:11:39 75° SW
Cosmos 1356 Rocket 4.0 20:13:46 45° NE 20:13:46 45° NE 20:17:01 10° NNE
Cosmos 489 Rocket 4.5 20:08:41 10° NNW 20:14:53 67° ENE 20:16:28 49° SE
ERBS 3.2 20:11:45 10° NW 20:14:20 46° WNW 20:14:20 46° WNW
STARLINK-1241 3.7 20:12:32 10° WNW 20:16:28 68° WSW 20:16:28 68° WSW
IGS 5A 3.4 20:20:27 80° NNE 20:20:27 80° NNE 20:24:27 10° NNW
SAR-Lupe-2 4.2 20:17:31 10° N 20:21:02 53° WNW 20:21:15 52° W
STARLINK-1239 3.9 20:17:30 10° WNW 20:21:14 60° WSW 20:21:14 60° WSW
ATLAS CENTAUR R/B 2.4 20:19:11 10° NNW 20:22:10 32° NNE 20:22:10 32° NNE
Spot 2 Rocket 3.6 20:22:15 48° SSW 20:23:37 69° WSW 20:28:43 10° NNW
Cosmos 1821 Rocket 4.1 20:19:18 10° N 20:25:37 58° ENE 20:26:40 52° ESE
USA 32 3.9 20:20:41 10° N 20:25:56 75° E 20:26:23 69° SE
STARLINK-1240 4.1 20:22:29 10° WNW 20:26:01 53° WSW 20:26:01 53° WSW
Cosmos 1850 Rocket 4.0 20:24:22 25° SSW 20:27:25 77° WNW 20:32:38 10° NNE
Cosmos 841 Rocket 3.4 20:23:59 10° NNW 20:29:16 68° ENE 20:29:32 66° E
Terra 2.5 20:29:53 41° NE 20:29:53 41° NE 20:33:55 10° N
SPOT 5 3.1 20:31:40 50° NNE 20:31:40 50° NNE 20:35:13 10° N
Cosmos 2082 Rocket 3.7 20:34:09 22° ENE 20:34:09 22° ENE 20:36:32 10° NE
STARLINK-1216 4.3 20:27:28 10° WNW 20:30:47 47° WSW 20:30:47 47° WSW
Cosmos 2278 4.1 20:26:35 10° NNW 20:32:02 45° ENE 20:32:29 44° ENE
Meteor 2-10 Rocket 3.4 20:33:52 76° SE 20:34:05 78° E 20:39:33 10° NNE
SL-08 R/B 4.5 20:28:45 10° N 20:34:55 78° W 20:36:45 48° S
Cosmos 1833 Rocket 3.0 20:39:02 50° ENE 20:39:02 50° ENE 20:43:31 10° NNE
CARTOSAT-1 4.0 20:39:31 57° N 20:39:31 57° N 20:43:04 10° N
ERS-1 Rocket 2.9 20:47:01 83° W 20:47:01 83° W 20:52:01 10° NNW
SL-4 R/B 3.7 20:44:29 10° WNW 20:46:33 27° NNW 20:46:33 27° NNW
Cosmos 1408 4.1 20:44:31 10° NNW 20:46:55 36° NW 20:46:55 36° NW
RESURS DK-1 3.3 20:47:10 10° NW 20:50:15 45° WNW 20:50:15 45° WNW
Cosmos 1766 Rocket 4.2 20:49:16 10° N 20:52:50 56° NNW 20:52:50 56° NNW
BREEZE M DEB (TANK) 4.1 20:49:18 10° W 20:53:25 39° WNW 20:53:25 39° WNW
Cosmos 1570 Rocket 4.2 20:49:08 10° NNW 20:54:26 64° WSW 20:54:32 64° WSW
Okean 3 Rocket 4.2 20:50:53 10° NNW 20:54:34 55° NW 20:54:34 55° NW
Resurs 01 Rocket 4.1 20:55:17 12° WSW 20:57:17 15° W 20:59:55 10° NW
COSMOS 2406 3.6 20:54:53 28° SW 20:57:55 62° WNW 21:03:35 10° NNE
CZ-4C R/B 3.0 20:53:09 10° NW 21:00:14 67° NE 21:01:49 55° E
Cosmos 2151 4.4 21:04:28 10° NNW 21:07:34 35° WNW 21:07:34 35° WNW
Cosmos 1697 Rocket 2.9 21:09:14 10° NNW 21:14:29 62° W 21:14:29 62° W
Cosmos 2369 3.9 21:09:21 10° NNW 21:14:34 63° W 21:14:34 63° W
SL-16 R/B 3.3 21:31:35 10° NNW 21:36:11 37° NE 21:36:11 37° NE
Cosmos 2360 Rocket 4.0 21:33:03 10° N 21:37:14 21° NE 21:37:32 21° NE
USA 234 3.5 21:36:10 10° NE 21:42:39 66° NNW 21:49:06 10° WSW
Cosmos 2322 Rocket 3.4 21:38:38 10° NNW 21:43:04 35° NE 21:43:04 35° NE
Cosmos 1980 Rocket 2.8 21:39:28 10° NNW 21:43:48 51° NW 21:43:48 51° NW
Mayak 1.2 22:03:25 10° N 22:04:58 21° NNW 22:04:58 21° NNW
Terra 3.9 22:08:45 21° WNW 22:08:45 21° WNW 22:11:10 10° NW
Cosmos 2082 Rocket 3.2 22:15:56 41° NW 22:15:56 41° NW 22:20:52 10° NNE
Cosmos 1833 Rocket 4.5 22:20:38 23° WNW 22:22:17 27° NW 22:27:02 10° N
Cosmos 2219 Rocket 4.1 22:30:11 10° N 22:34:20 21° NE 22:34:42 21° NE
Cosmos 2344 4.5 22:27:26 10° NW 22:37:11 64° WSW 22:38:34 61° SSW
CZ-4C R/B 4.0 22:42:03 10° NW 22:47:00 33° W 22:47:00 33° W
COSMOS 2428 4.2 22:59:02 10° N 23:03:37 29° NE 23:03:37 29° NE
SL-16 R/B 4.1 23:15:47 10° NW 23:18:02 22° NW 23:18:02 22° NW
Cosmos 2360 Rocket 3.6 23:16:17 10° NNW 23:19:17 33° NNW 23:19:17 33° NNW
USA 234 4.5 23:19:08 10° NE 23:25:02 38° N 23:30:57 10° WNW
Cosmos 2322 Rocket 4.1 23:22:42 10° NW 23:24:52 22° NW 23:24:52 22° NW
Cosmos 2333 Rocket 3.3 23:38:43 10° NNW 23:42:25 40° N 23:42:25 40° N
Cosmos 2237 Rocket 4.0 23:40:28 10° N 23:45:11 26° NE 23:46:25 24° ENE
SL-16 R/B 3.6 23:48:42 36° ENE 23:49:16 36° ENE 23:54:51 10° N
